JI1PZF-2 Weather Reports


Display with metric or nautical units.
time (UTC)temp
F
wind
direction
speed
MPH
gust
MPH
rain 1hr
in
rain 24hr
in
rain mn
in
humidity
%
barometer
mb
20260502130319 71 101 0.0 0.0 0.00 0.00 0.00 28 991.6
20260502123339 71 102 0.0 0.0 0.00 0.00 0.00 29 991.2
20260502122343 71 101 0.0 0.0 0.00 0.00 0.00 28 991.1
20260502121324 71 101 0.0 0.0 0.00 0.00 0.00 26 991.1
20260502120323 72 102 0.0 0.0 0.00 0.00 0.00 25 990.9
20260502115338 72 102 0.0 0.0 0.00 0.00 0.00 25 990.8
20260502114341 73 102 0.0 0.0 0.00 0.00 0.00 23 990.8
20260502113321 73 101 0.0 0.0 0.00 0.00 0.00 22 990.5
20260502112323 73 102 0.0 1.0 0.00 0.00 0.00 22 990.3
20260502111328 73 102 0.0 0.0 0.00 0.00 0.00 24 990.1
20260502110329 74 102 0.0 0.0 0.00 0.00 0.00 22 990.0
20260502105325 74 102 0.0 1.0 0.00 0.00 0.00 21 989.8
20260502104329 74 105 0.0 0.0 0.00 0.00 0.00 21 989.6
20260502103331 74 103 0.0 1.0 0.00 0.00 0.00 22 989.6
20260502102313 75 105 0.0 1.0 0.00 0.00 0.00 21 989.4
20260502101352 75 74 0.0 2.0 0.00 0.00 0.00 20 989.4
20260502100330 75 108 0.0 0.0 0.00 0.00 0.00 20 989.4
20260502091336 76 61 0.0 4.0 0.00 0.00 0.00 19 988.7
20260502090316 77 127 0.0 2.0 0.00 0.00 0.00 19 988.6
20260502071317 80 256 1.0 5.0 0.00 0.00 0.00 23 987.2
20260502070337 80 101 1.0 4.0 0.00 0.00 0.00 24 987.2
20260502065312 80 278 1.0 5.0 0.00 0.00 0.00 24 987.1
20260502064313 80 108 1.0 5.0 0.00 0.00 0.00 24 987.1
20260502063326 82 133 3.0 6.0 0.00 0.00 0.00 23 986.9
20260502062313 82 310 0.0 3.0 0.00 0.00 0.00 15 986.7
20260502061332 82 301 0.0 5.0 0.00 0.00 0.00 15 986.6
20260502060332 82 339 3.0 6.0 0.00 0.00 0.00 15 986.4
20260502055327 82 358 3.0 7.0 0.00 0.00 0.00 15 986.3
20260502054329 82 318 2.0 8.0 0.00 0.00 0.00 15 986.2
20260502053324 81 102 1.0 7.0 0.00 0.00 0.00 15 986.2
20260502052327 81 92 3.0 7.0 0.00 0.00 0.00 16 986.1
20260502051331 81 325 2.0 6.0 0.00 0.00 0.00 15 986.0
20260502050350 82 307 2.0 8.0 0.00 0.00 0.00 15 985.9
20260502045323 82 308 1.0 8.0 0.00 0.00 0.00 15 985.8
20260502044325 81 349 1.0 9.0 0.00 0.00 0.00 15 985.7
20260502043325 81 277 1.0 13.0 0.00 0.00 0.00 15 985.6
20260502042329 82 65 2.0 10.0 0.00 0.00 0.00 15 985.5
20260502041330 80 280 4.0 11.0 0.00 0.00 0.00 15 985.6
20260502040331 80 316 1.0 8.0 0.00 0.16 0.00 16 985.4
20260502035326 80 310 6.0 19.0 0.00 0.16 0.00 15 985.6
20260502034328 80 142 3.0 14.0 0.00 0.16 0.00 16 985.4
20260502033358 80 321 3.0 7.0 0.00 0.16 0.00 17 985.2
20260502032313 80 333 2.0 10.0 0.00 0.16 0.00 18 985.0
20260502031314 80 335 3.0 8.0 0.00 0.16 0.00 18 985.0
20260502030315 79 298 2.0 12.0 0.00 0.47 0.00 19 984.9
20260502025329 79 319 4.0 11.0 0.00 0.47 0.00 19 984.7
20260502024330 78 319 6.0 13.0 0.00 0.47 0.00 19 984.7
20260502023352 79 39 5.0 12.0 0.00 0.47 0.00 20 984.6
20260502022333 78 269 2.0 16.0 0.00 0.47 0.00 20 984.6
20260502021336 78 319 3.0 17.0 0.00 0.47 0.00 19 984.4
20260502020336 78 239 2.0 10.0 0.00 0.79 0.00 19 984.2
20260502015334 77 218 2.0 11.0 0.00 0.79 0.00 20 984.1
20260502014337 77 325 5.0 16.0 0.00 0.79 0.00 19 983.9
20260502013334 77 319 2.0 14.0 0.00 0.79 0.00 21 983.7
20260502012337 77 298 3.0 11.0 0.00 0.79 0.00 21 983.8
20260502011313 76 356 5.0 17.0 0.00 0.79 0.00 23 983.8
20260502010340 75 332 1.0 5.0 0.00 2.17 0.00 27 983.9
20260502005334 74 264 0.0 3.0 0.00 2.17 0.00 32 984.0
20260502004333 73 105 1.0 6.0 0.00 2.17 0.00 34 983.8
20260502003314 73 121 3.0 7.0 0.00 2.17 0.00 34 983.7
20260502002335 72 266 2.0 9.0 0.00 2.17 0.00 34 983.6
20260502001336 72 203 0.0 5.0 0.00 2.17 0.00 35 983.7
20260502000332 71 170 2.0 4.0 0.00 4.02 0.00 35 983.6
20260501235329 70 276 2.0 5.0 0.00 4.02 0.00 35 983.7
20260501234331 70 16 1.0 6.0 0.00 4.02 0.00 35 983.5
20260501233334 71 250 1.0 3.0 0.00 4.02 0.00 33 983.4
20260501232330 70 304 1.0 4.0 0.00 4.02 0.00 32 983.1
20260501231330 69 325 2.0 5.0 0.00 4.02 0.00 35 982.9
20260501230329 68 162 1.0 4.0 0.00 4.65 0.00 37 982.8
20260501225331 68 241 0.0 4.0 0.00 4.65 0.00 39 982.7
20260501224323 67 349 1.0 3.0 0.00 4.65 0.00 40 982.4
20260501223352 66 243 0.0 3.0 0.00 4.65 0.00 41 982.3
20260501222330 65 214 0.0 3.0 0.00 4.65 0.00 43 982.3
20260501221324 65 326 0.0 1.0 0.00 4.65 0.00 43 982.1
20260501220326 64 323 1.0 5.0 0.00 4.65 0.00 45 982.0
20260501215321 63 335 2.0 5.0 0.00 4.65 0.00 46 981.7
20260501214316 63 329 0.0 5.0 0.00 4.65 0.00 47 981.5
20260501213319 62 318 1.0 5.0 0.00 4.65 0.00 48 981.2
20260501212319 62 345 1.0 7.0 0.00 4.65 0.00 48 981.1
20260501211319 62 328 1.0 11.0 0.00 4.65 0.00 48 980.8
20260501210318 62 340 3.0 8.0 0.00 4.65 0.00 49 980.8
20260501205319 0 0.0 0.0 0.00 4.65 0.00 980.6
20260501204326 0 0.0 0.0 0.00 4.65 0.00 980.5
20260501203325 0 0.0 0.0 0.00 4.65 0.00 980.2
20260501202329 0 0.0 0.0 0.00 4.65 0.00 980.1
20260501200321 0 0.0 0.0 0.00 4.65 0.00 979.3
20260501195347 0 0.0 0.0 0.00 4.65 0.00 979.2
20260501194353 0 0.0 0.0 0.00 4.65 0.00 979.2
20260501193325 0 0.0 0.0 0.00 4.65 0.00 978.8
20260501191345 0 0.0 0.0 0.00 4.65 0.00 978.3
20260501190328 0 0.0 0.0 0.00 4.65 0.00 978.1
20260501184326 0 0.0 0.0 0.00 4.65 0.00 977.3
20260501182319 0 0.0 0.0 0.00 4.65 0.00 976.9
20260501181323 0 0.0 0.0 0.00 4.65 0.00 976.5
20260501180323 0 0.0 0.0 0.00 4.65 0.00 976.3
20260501175323 0 0.0 0.0 0.00 4.65 0.00 976.3
20260501173322 0 0.0 0.0 0.00 4.65 0.00 975.8
20260501172328 0 0.0 0.0 0.00 4.65 0.00 975.7
20260501170333 60 1 3.0 11.0 0.00 4.65 0.00 59 975.3
20260501165329 60 212 4.0 9.0 0.00 4.65 0.00 59 975.0
20260501164332 60 225 2.0 5.0 0.00 4.65 0.00 60 975.2
20260501163341 60 307 4.0 11.0 0.00 4.65 0.00 61 975.1
20260501162318 59 25 1.0 4.0 0.00 4.65 0.00 65 975.4
20260501161314 59 115 0.0 2.0 0.00 4.65 0.00 66 975.3
20260501160317 58 231 0.0 1.0 0.00 4.72 0.00 66 975.4
20260501155336 59 231 0.0 0.0 0.00 4.72 0.00 65 975.2
20260501154313 59 240 0.0 2.0 0.00 4.72 0.00 66 975.5
20260501153336 59 155 0.0 1.0 0.00 4.72 0.00 66 975.6
20260501152317 59 157 0.0 0.0 0.00 4.72 0.00 66 975.7
20260501151347 59 157 0.0 1.0 0.00 4.72 0.00 66 975.6
20260501150327 59 141 0.0 0.0 0.00 4.84 0.94 65 975.5
20260501145332 59 205 0.0 0.0 0.00 4.84 0.94 65 975.5
20260501144335 59 240 0.0 2.0 0.00 4.84 0.94 65 975.6
20260501143336 60 329 1.0 4.0 0.00 4.84 0.94 64 975.5